This is the latest recevied weather packets stored in our database for station/object KC3UTO. If no packets are shown the sender has not sent any weather packets the latest 10 day(s).
| Time | Temp. | Humidity | Pressure | Rain* | Wind** | Luminosity | Snow |
|---|---|---|---|---|---|---|---|
| 1777238336 | 15.56° C | 55% | 1018.6 hPa | 0 mm | - | 177 W/m² | - |
| 1777238033 | 15° C | 55% | 1018.6 hPa | 0 mm | - | 193 W/m² | - |
| 1777237729 | 15° C | 53% | 1018.4 hPa | 0 mm | - | 177 W/m² | - |
| 1777237426 | 15° C | 56% | 1018.4 hPa | 0 mm | - | 202 W/m² | - |
| 1777237124 | 15° C | 54% | 1018.5 hPa | 0 mm | - | 203 W/m² | - |
| 1777236821 | 15.56° C | 54% | 1018.3 hPa | 0 mm | - | 213 W/m² | - |
| 1777236521 | 15.56° C | 56% | 1018.4 hPa | 0 mm | - | 250 W/m² | - |
| 1777236218 | 15.56° C | 55% | 1018.4 hPa | 0 mm | - | 243 W/m² | - |
| 1777235912 | 15° C | 56% | 1018.5 hPa | 0 mm | - | 229 W/m² | - |
| 1777235610 | 15° C | 54% | 1018.3 hPa | 0 mm | - | 227 W/m² | - |
| 1777235307 | 15° C | 54% | 1018.4 hPa | 0 mm | - | 216 W/m² | - |
| 1777235003 | 15° C | 55% | 1018.3 hPa | 0 mm | - | 181 W/m² | - |
| 1777234700 | 15.56° C | 54% | 1018.2 hPa | 0 mm | - | 246 W/m² | - |
| 1777234395 | 15° C | 57% | 1018.3 hPa | 0 mm | - | 299 W/m² | - |
| 1777234090 | 14.44° C | 58% | 1018.3 hPa | 0 mm | - | 279 W/m² | - |
| 1777233786 | 13.89° C | 58% | 1018.4 hPa | 0 mm | - | 280 W/m² | - |
| 1777233483 | 14.44° C | 58% | 1018.5 hPa | 0 mm | - | 189 W/m² | - |
| 1777233183 | 14.44° C | 59% | 1018.5 hPa | 0 mm | - | 159 W/m² | - |
| 1777232877 | 14.44° C | 59% | 1018.4 hPa | 0 mm | - | 200 W/m² | - |
| 1777232576 | 14.44° C | 60% | 1018.4 hPa | 0 mm | - | 255 W/m² | - |
| 1777232275 | 13.89° C | 58% | 1018.5 hPa | 0 mm | - | 279 W/m² | - |
| 1777231970 | 14.44° C | 57% | 1018.7 hPa | 0 mm | - | 198 W/m² | - |
| 1777231668 | 13.89° C | 59% | 1018.5 hPa | 0 mm | - | 207 W/m² | - |
| 1777231364 | 13.89° C | 57% | 1018.4 hPa | 0 mm | - | 255 W/m² | - |
| 1777231059 | 13.89° C | 59% | 1018.4 hPa | 0 mm | - | 189 W/m² | - |
* Rain latest hour (hover to see other rain measurements)
** Current wind speed in m/s (hover to see current wind gust speed)